Regional Weather Roundup
Issued by NWS Cleveland, OH

Home | Current Version | Previous Version | Graphics & Text | Print | Product List | Glossary On
Versions: 1 2 3 4 5 6 7 8 9 10 11 12 13 14 15 16 17 18 19 20 21 22 23 24 25 26 27 28 29 30 31 32 33 34 35 36 37 38 39 40 41 42 43 44 45 46 47 48 49 50
000
ASUS41 KCLE 291700
RWRCLE
OHIO REGIONAL WEATHER ROUNDUP
NATIONAL WEATHER SERVICE WILMINGTON, OH
100 PM EDT WED JUL 29 2015

NOTE: "FAIR" INDICATES FEW OR NO CLOUDS BELOW 12,000 FEET WITH NO
SIGNIFICANT WEATHER AND/OR OBSTRUCTIONS TO VISIBILITY.

OHZ001>008-015>018-024>027-034-035-043-044-291800-
   NORTHWEST OHIO

CITY           SKY/WX    TMP DP  RH WIND       PRES   REMARKS
DEFIANCE       PTSUNNY   89  73  59 SW6       29.94F HX  97
FINDLAY        PTSUNNY   89  73  59 S8        29.94F HX  97
TOLEDO EXPRESS MOSUNNY   88  74  63 VRB5      29.93F HX  96
TOLEDO EXEC    MOSUNNY   89  71  55 S7        29.94F HX  95
LIMA           PTSUNNY   87  71  58 S6        29.96F HX  93
$$

OHZ009>014-019>023-028>033-038-089-291800-
   NORTHEAST OHIO

CITY           SKY/WX    TMP DP  RH WIND       PRES   REMARKS
CLE-HOPKINS    MOSUNNY   88  62  41 VRB6        N/A
CLE-LAKEFRONT  PTSUNNY   86  69  56 N6        29.95F HX  90
CUY CO. ARPT   PTSUNNY   90  61  37 W12       29.98F
LORAIN-ELYRIA  SUNNY     87  66  49 VRB3      29.97F
ASHTABULA      PTSUNNY   86  67  52 SE5       29.99F
AKRON-CANTON   MOSUNNY   89  63  41 W7        30.00F HX  90
WOOSTER        NOT AVBL
MANSFIELD      MOSUNNY   87  67  51 S3        30.00F HX  90
YOUNGSTOWN     CLOUDY    86  68  54 VRB5      30.00F
$$

OHZ042-051>053-060>062-070>072-077>081-291800-
  SOUTHWEST OHIO

CITY           SKY/WX    TMP DP  RH WIND       PRES   REMARKS
CINC-COVINGTON PTSUNNY   86  77  74 N5        29.99F HX  97
CINC-LUNKEN    MOSUNNY   89  75  63 CALM      29.96F HX  99
HAMILTON       PTSUNNY   89  75  63 VRB3      29.97F HX  99
DAYTON         NOT AVBL
WRIGHT-PAT AFB NOT AVBL
DAYTON GENERAL MOSUNNY   87  72  60 SW7       29.98F HX  93
WILMINGTON     PTSUNNY   87  72  60 VRB3      29.99F HX  93
$$

OHZ036-037-039>041-045>050-054>059-063>069-073>076-082>088-291800-
  CENTRAL AND SOUTHEAST OHIO

CITY           SKY/WX    TMP DP  RH WIND       PRES   REMARKS
COLUMBUS       MOSUNNY   87  70  56 VRB3      29.97F HX  92
OSU AIRPORT    MOSUNNY   88  70  55 S3        29.98F HX  93
BOLTON FIELD   NOT AVBL
RICKENBACK AFB NOT AVBL
NEWARK         SUNNY     87  70  56 VRB3      29.98F HX  92
MARION         MOSUNNY   87  69  54 S8        29.98F HX  91
LANCASTER      SUNNY     88  70  55 VRB5      29.99F HX  93
ZANESVILLE     MOSUNNY   87  69  54 VRB3      29.99F HAZE    HX  91
NEW PHILLY     MOSUNNY   86  70  58 SE6       29.99F HX  90
$$



USA.gov is the U.S. government's official web portal to all federal, state and local government web resources and services.